User: anonymous   Login
Location: Unspecified
(0.0000°N, 0.0000°E)
Time: 13:23:43
(UTC+01:00)
Language:

Cosmos 1315 Rocket - Orbit

View from above orbital plane
View from above orbital plane
View from above satellite
View from above satellite

Ground track
Ground track

The orbit data is extracted from the following two-line orbital elements,

1 12904U 81103B   16038.54800454  .00000924  00000-0  63491-4 0  9999
2 12904  81.1780 121.4268 0027526 254.6593 105.1588 15.04733267418271
Epoch (UTC): 07 February 2016 13:09:07
Eccentricity: 0.0027526
inclination: 81.1780°
perigee height: 533 km
apogee height: 571 km
right ascension of ascending node: 121.4268°
argument of perigee: 254.6593°
revolutions per day: 15.04733267
mean anomaly at epoch: 105.1588°
orbit number at epoch: 41827

The dashed part of the orbit path shows where the satellite is in the earth's shadow,  

DLR